Regional Weather Roundup
Issued by NWS

Home | Current Version | Previous Version | Graphics & Text | Print | Product List | Glossary On
Versions: 1 2 3 4 5 6 7 8 9 10 11 12 13 14 15 16 17 18 19 20 21 22 23 24 25 26 27 28 29 30 31 32 33 34 35 36 37 38 39 40 41 42 43 44 45 46 47 48 49 50
000
ASUS45 KBOU 040907
RWRCO

WEATHER ROUNDUP FOR COLORADO
NATIONAL WEATHER SERVICE DENVER/BOULDER CO
300 AM MDT MON MAY 04 2015

NOTE: "FAIR" INDICATES FEW OR NO CLOUDS BELOW 12000 FEET WITH NO
SIGNIFICANT WEATHER AND/OR OBSTRUCTIONS TO VISIBILITY.

COZ001>005-013-030-031-041000-
...NORTHWEST COLORADO...

CITY           SKY/WX    TMP DP  RH WIND       PRES   REMARKS
CRAIG          CLOUDY    48  42  80 N5        30.06F
HAYDEN         CLOUDY    46  39  76 SE14      30.05F
MEEKER         MOCLDY    47  42  83 NE6       30.06F
MOUNT WERNER   NOT AVBL
STEAMBOAT SPGS CLOUDY    46  37  70 E3        30.08F
WALDEN         MOCLDY    34  32  93 CALM      30.14S
$$

COZ006>008-011-041000-
...WEST CENTRAL VALLEYS...

CITY           SKY/WX    TMP DP  RH WIND       PRES   REMARKS
GRAND JUNCTION MOCLDY    55  42  61 E9        30.00S
MONTROSE       PTCLDY    46  38  73 S5        30.06F
EAGLE          MOCLDY    43  41  93 CALM      30.13S
RIFLE          MOCLDY    50  46  86 S3        30.06F
DELTA          NOT AVBL
NUCLA          PTCLDY    52  37  58 E10       30.06F
$$

COZ017>023-064>068-041000-
...SOUTHWEST COLORADO...

CITY           SKY/WX    TMP DP  RH WIND       PRES   REMARKS
DURANGO        PTCLDY    40  35  83 N5        30.08S
CORTEZ         CLEAR     43  36  76 E7        30.05S
PAGOSA SPRINGS PTCLDY    38  37  95 W3        30.13F
TELLURIDE      MOCLDY    39  36  90 SE6       30.19S
WOLF CREEK PAS NOT AVBL
$$

COZ009-010-012-014-032>034-037-058>063-041000-
...CENTRAL COLORADO...

CITY           SKY/WX    TMP DP  RH WIND       PRES   REMARKS
ASPEN          CLOUDY    43  38  82 SW6       30.12F
BUENA VISTA    NOT AVBL
COPPER MTN     CLOUDY    36  30  80 S8        30.28F
BERTHOUD PASS  HAZE      28  19  69 E18       30.31F VSB<1/4 WCI  16
COTTONWOOD PAS CLOUDY    41  36  81 SE5       30.22F
GUNNISON       MOCLDY    43  36  75 N3        30.18F
KREMMLING      MOCLDY    37  34  87 CALM      30.14S
LEADVILLE      LGT RAIN  35  32  88 S6        30.20F WCI  30
MONARCH PASS   FOG       30  30 100 MISG      30.38F VSB<1/4
SALIDA         CLOUDY    47  44  87 CALM      30.22S
SUNLIGHT       CLOUDY    36  36 100 CALM      30.26F
WILKERSON PASS SNOW      32  32 100 CALM      30.29F VSB 1/4
$$

COZ069>075-041000-
...SAN LUIS VALLEY/SANGRE DE CRISTO MOUNTAINS...

CITY           SKY/WX    TMP DP  RH WIND       PRES   REMARKS
ALAMOSA        PTCLDY    41  36  82 SW5       30.12F
LA VETA PASS   PTCLDY    36  34  93 MISG      30.23S
SAGUACHE       NOT AVBL
$$

COZ035-036-038>040-041000-
...NORTHERN COLORADO FRONT RANGE...

CITY           SKY/WX    TMP DP  RH WIND       PRES   REMARKS
DENVER INTL AP CLOUDY    50  46  86 E7        30.10R
DMNS CITY PARK   N/A     52  44  75 NE1       30.10R
AURORA         MOCLDY    50  46  87 E5        30.11R
FRONT RANGE AP NOT AVBL
ERIE MUNI ARPT DRIZZLE   52  47  82 CALM      30.09R
BOULDER MUN AP LGT RAIN  52  46  82 E3        30.09R
CENTENNIAL     LGT RAIN  50  46  86 SW7       30.10S
BROOMFIELD     LGT RAIN  50  46  87 CALM      30.10S
FORT COLLINS   CLOUDY    50  45  81 SE8       30.10R
LONGMONT       DRIZZLE   53  47  82 SE3       30.11R
$$

COZ041-046-047-076>085-087-088-041000-
...PIKES PEAK/PALMER DIVIDE AND SOUTHERN FOOTHILLS...

CITY           SKY/WX    TMP DP  RH WIND       PRES   REMARKS
COLO. SPRINGS  LGT RAIN  48  45  89 NW10      30.11F
A. F. ACADEMY  LGT RAIN  48  46  93 E5        30.12S
ELLICOTT       CLOUDY   N/A N/A N/A NE7       30.09F
FALCON         CLOUDY    48  43  82 NW7       30.14S
FORT CARSON    CLOUDY    49  47  93 N8        30.07F
LIMON          CLOUDY    52  45  77 CALM      30.08R
MONUMENT HILL  CLOUDY    45  41  87 W3        30.13S
TRINIDAD       PTCLDY    50  42  74 W7        30.08R
$$

COZ042>045-048>051-090-091-041000-
...NORTHEAST COLORADO...

CITY           SKY/WX    TMP DP  RH WIND       PRES   REMARKS
GREELEY ARPT   CLOUDY    52  43  71 E12       30.09S
AKRON          CLOUDY    50  40  68 E9        30.08S
BURLINGTON     LGT RAIN  53  47  79 NE9       30.05R
WRAY           CLOUDY    54  39  57 NE8       30.05S
STERLING       CLOUDY    54  39  58 E5        30.07F
HOLYOKE        NOT AVBL
FORT MORGAN    CLOUDY    51 -10   7 E9        30.09F
$$

COZ086-089-092>099-041000-
...SOUTHEAST COLORADO...

CITY           SKY/WX    TMP DP  RH WIND       PRES   REMARKS
PUEBLO         CLOUDY    56  46  69 N8        30.05R
LA JUNTA       CLOUDY    56  49  77 NW7       30.01R
LAMAR          CLOUDY    56  50  80 NE5       29.97S
SPRINGFIELD      N/A     51  46  83 SW8       29.99F
$$


USA.gov is the U.S. government's official web portal to all federal, state and local government web resources and services.